This is the latest recevied weather packets stored in our database for station/object N7WSS. If no packets are shown the sender has not sent any weather packets the latest 1 day(s).
| Time | Temp. | Humidity | Pressure | Rain* | Wind** | Luminosity | Snow |
|---|---|---|---|---|---|---|---|
| 1778024514 | 23.33° C | 28% | 1008.1 hPa | 0 mm | 1.34 m/s, 46° | - | - |
| 1778024211 | 23.33° C | 27% | 1008.2 hPa | 0 mm | 3.13 m/s, 83° | - | - |
| 1778023909 | 23.89° C | 28% | 1008.2 hPa | 0 mm | 1.34 m/s, 111° | - | - |
| 1778023606 | 23.33° C | 26% | 1008.1 hPa | 0 mm | 0.89 m/s, 91° | - | - |
| 1778023304 | 23.89° C | 26% | 1008.2 hPa | 0 mm | 2.24 m/s, 152° | - | - |
| 1778023000 | 23.33° C | 26% | 1008.3 hPa | 0 mm | 2.24 m/s, 70° | - | - |
| 1778022699 | 23.33° C | 26% | 1008.2 hPa | 0 mm | 3.13 m/s, 14° | - | - |
| 1778022397 | 23.89° C | 28% | 1008 hPa | 0 mm | 2.24 m/s, 95° | - | - |
| 1778022092 | 23.89° C | 29% | 1008 hPa | 0 mm | 2.24 m/s, 106° | - | - |
| 1778021789 | 23.89° C | 30% | 1008.2 hPa | 0 mm | 1.79 m/s, 338° | - | - |
| 1778021485 | 23.89° C | 31% | 1008.2 hPa | 0 mm | 1.79 m/s, 118° | - | - |
| 1778021182 | 23.33° C | 32% | 1008.3 hPa | 0 mm | 1.79 m/s, 90° | - | - |
| 1778020880 | 24.44° C | 31% | 1008.1 hPa | 0 mm | 2.24 m/s, 108° | - | - |
| 1778020577 | 23.89° C | 32% | 1008.2 hPa | 0 mm | 1.79 m/s, 104° | - | - |
| 1778020273 | 23.89° C | 32% | 1008.3 hPa | 0 mm | 1.79 m/s, 128° | - | - |
| 1778019969 | 23.33° C | 33% | 1008.5 hPa | 0 mm | 1.79 m/s, 63° | - | - |
| 1778019666 | 23.89° C | 32% | 1008.4 hPa | 0 mm | 1.79 m/s, 1° | - | - |
| 1778019363 | 24.44° C | 31% | 1008.4 hPa | 0 mm | 2.68 m/s, 110° | - | - |
| 1778019059 | 24.44° C | 31% | 1008.4 hPa | 0 mm | 3.58 m/s, 47° | - | - |
| 1778018756 | 23.89° C | 34% | 1008.4 hPa | 0 mm | 4.92 m/s, 349° | - | - |
| 1778018454 | 24.44° C | 34% | 1008.7 hPa | 0 mm | 0.45 m/s, 103° | - | - |
| 1778018152 | 24.44° C | 34% | 1008.7 hPa | 0 mm | 2.68 m/s, 64° | - | - |
| 1778017849 | 23.89° C | 34% | 1008.8 hPa | 0 mm | 3.13 m/s, 77° | - | - |
| 1778017547 | 23.33° C | 36% | 1008.9 hPa | 0 mm | 3.58 m/s, 65° | - | - |
| 1778017244 | 23.89° C | 35% | 1008.8 hPa | 0 mm | 2.24 m/s, 66° | - | - |
* Rain latest hour (hover to see other rain measurements)
** Current wind speed in m/s (hover to see current wind gust speed)